Location: *
(40.4270°N, 9.4940°E)
Time: 05:59:20
(UTC+02:00)

Okean 2 - Visible Passes

Search period start: 27 June 2016 00:00
Search period end: 07 July 2016 00:00
Orbit: 561 x 581 km, 82.5° (Epoch: 26 June)

Date Brightness Start Highest point End Pass type
(mag) Time Alt. Az. Time Alt. Az. Time Alt. Az.
27 Jun 3.4 04:50:57 10° NNW 04:55:02 64° W 04:59:04 10° S visible
28 Jun 6.3 03:18:21 10° NE 03:20:11 13° ENE 03:21:59 10° E visible
28 Jun 3.7 04:53:22 10° NNW 04:57:19 48° W 05:01:16 10° SSW visible
29 Jun 6.1 03:20:01 10° NNE 03:22:37 16° ENE 03:25:13 10° ESE visible
29 Jun 4.1 04:55:51 10° NNW 04:59:37 36° W 05:03:23 10° SSW visible
30 Jun 5.7 03:21:55 10° NNE 03:25:03 21° ENE 03:28:09 10° ESE visible
30 Jun 4.4 04:58:23 10° NNW 05:01:53 27° W 05:05:23 10° SSW visible
01 Jul 5.3 03:23:57 10° NNE 03:27:27 26° ENE 03:30:56 10° SE visible
01 Jul 4.8 05:01:01 10° NW 05:04:09 21° W 05:07:10 11° SW visible
02 Jul 4.8 03:26:04 10° N 03:29:51 34° ENE 03:32:47 15° SE visible
02 Jul 5.1 05:03:46 10° NW 05:06:23 17° W 05:08:54 10° SW visible
03 Jul 4.3 03:28:15 10° N 03:32:13 45° E 03:34:34 22° SE visible
03 Jul 5.4 05:06:48 10° WNW 05:08:37 13° W 05:10:27 10° WSW visible
04 Jul 3.8 03:30:30 10° N 03:34:35 60° E 03:36:24 30° SSE visible
05 Jul 3.4 03:32:46 10° N 03:36:55 80° E 03:38:16 41° SSE visible
06 Jul 3.3 03:35:07 10° N 03:39:14 77° W 03:40:11 51° SSW visible
